Flag for China Weather past 2 weeks in Chengdu, Sichuan, China

Now
79 °F

Fog.


Feels Like: 82 °F
Forecast: 77 / 92 °F
Wind: 1 mph from North

Location: Chengdu Airport

Current Time: Jul 30, 2014 at 7:45:54 AM

Latest Report: Jul 30, 2014 at 7:00 AM


Visibility: 2 mi

Pressure: 29.62 "Hg

Humidity: 84%

Dew point: 73 °F

Location of ChengduLocation

Historic Weather in Chengdu — Graph

°F

Chengdu temperature yesterday

Maximum temperature yesterday: 93 °F (at 1:00 PM)
Minimum temperature yesterday: 77 °F (at 1:00 AM)
Average temperature yesterday: 84 °F

Past Weeks' High & Low Weather Summary

 TemperatureHumidityPressure
High99 °F (Jul 22, 4:00 PM)100% (Jul 27, 8:00 PM)29.83 "Hg (Jul 27, 8:00 PM)
Low72 °F (Jul 15, 6:00 AM)34% (Jul 25, 1:00 PM)29.56 "Hg (Jul 29, 4:00 PM)
Average83 °F69%29.71 "Hg
* Reported Jul 15 6:00 AM — Jul 30 6:00 AM, Chengdu, Weather by CustomWeather, © 2014

Note: Actual official high and low records may vary slightly from our data, if they occured in-between our weather recording intervals... More about our weather records

Advertising

Chengdu weather history for previous 24 hours

 ConditionsComfort  
Time TempWeatherWind HumidityBarometerVisibility
6:00 AM
Jul 30
79 °FFog.No wind84%29.62 "Hg3 mi
5:00 AM79 °FFog.No wind89%29.62 "Hg3 mi
4:00 AM81 °FFog.1 mph79%29.62 "Hg3 mi
3:00 AM81 °FFog.No wind84%29.62 "Hg3 mi
2:00 AM81 °FFog.No wind79%29.62 "Hg3 mi
1:00 AM81 °FFog.No wind84%29.62 "Hg3 mi
12:00 AM82 °FFog.1 mph79%29.62 "Hg3 mi
11:00 PM
Jul 29
84 °FFog.No wind70%29.62 "Hg3 mi
10:00 PM82 °FFog.1 mph79%29.62 "Hg3 mi
9:00 PM86 °FPassing clouds.1 mph70%29.59 "Hg3 mi
8:00 PM86 °FFog.3 mph70%29.56 "Hg2 mi
7:00 PM88 °FHaze.No wind66%29.56 "Hg3 mi
6:00 PM90 °FPassing clouds.No wind63%29.56 "Hg4 mi
5:00 PM84 °FThunderstorms. Scattered clouds.6 mph70%29.56 "Hg4 mi
4:00 PM90 °FThunderstorms. Scattered clouds.3 mph59%29.56 "Hg3 mi
3:00 PM93 °FScattered clouds.No wind49%29.59 "Hg4 mi
2:00 PM91 °FScattered clouds.3 mph56%29.62 "Hg4 mi
1:00 PM93 °FHaze.1 mph53%29.65 "Hg3 mi
12:00 PM90 °FHaze.1 mph63%29.65 "Hg3 mi
11:00 AM86 °FHaze.No wind66%29.65 "Hg3 mi
10:00 AM84 °FHaze.No wind70%29.65 "Hg2 mi
9:00 AM82 °FFog.1 mph74%29.65 "Hg2 mi
8:00 AM81 °FFog.1 mph79%29.65 "Hg2 mi
7:00 AM79 °FFog.1 mph84%29.62 "Hg2 mi
Weather by CustomWeather, © 2014

See weather overviewHow to use our weather pages